Find the Weather for any City, State or Zip Code, or Country:


Mobile Weather


Questions? Comments?
Contact Greg


Winchester Trails
Subdivision Website


Current Maps

Tropical (Hurricane)

Temperature

Heat Index

Windchill

Humidity

Radar

Dew Point

Wind

Visibility

Visible Satellite

Satellite

Fronts

Jet Stream

Flight Rules


Forecast Maps

Temperature Forecast

Maximum Temperature Forecast

Minimum Temperature Forecast

Dewpoint Forecast

Prevalent Weather

12Hr Probability of Precip.

Sky Cover


Health Maps

Houston Pollen/Mold Report

UV Forecast

Air Quality

Peak Air Quality Index


Miscellaneous

NOAA Aviation Weather

NWS Houston/Galveston

National Weather Service (main page)

National Hurricane Center

NOAA Historical Hurricane Tracks

Wunderground
Hurricane Archive


Harris Co. Flood Warning System

Harris Co. Storm Risk Calculator

U.S. Drought Monitor

TX Lake/Reservoir Data & Levels

Eric 'SciGuy' Berger Weather Blog

Dr. Jeff Masters Weather Blog

Houston Traffic

TxDOT Highway Conditions

Houston Electricity Outage Tracker

Houston Bayport Cruise Terminal Webcam

Galveston CruiseCam


This Station's Data

NOAA-Style Reports

Weather Detail

Daily Tabular Data


This Station's Position:
Lat. 29° 54' 14.18" N
Lon. 95° 34' 24.45" W
Elevation 112 ft (34.1 m)


Visit this station's partner in Cypress, 8sm west of here!


Weather Instruments:


Vantage Pro 2


Current Weather Conditions

This page refreshes automatically every 5 minutes and is best viewed at 1024x768 or higher resolution.
Powered by Ambient Weather Virtual Weather Station V15.00

Page last refreshed Sun February 1, 2015 at 12:07 pm CST (UTC -6) (2015-02-01 18:07 UTC/GMT/Zulu)

Metric & Other Conversions for Current Observations
Current Temp24.1 °CHigh Temp24.3 °CLow Temp16.1 °C
Current Dew Point17.1 °CHeat Index25.4 °CWind Chill24.1 °C
Barometer1013.59 mbarBarometer760.2 mmHgBarometer14.7 psi
Density Altitude:  1205 ft (367.3 m)Pressure Altitude:  103 ft (31.4 m)
Barometer readings for a Standard Day (59.0 °F/15.0 °C @ sea level):  29.92" Hg, 1013.25 mbar, 757.83 mmHg, 14.70 psi


No Warnings, Watches, or Advisories for Harris and surrounding counties.


Local Radar Other Radar Graphics Local Satellite
Click for larger image WunderMap®

High Definition Radar (KHOU)

Regional Radar
Click for larger image
Radar & Satellite Graphics by Weather Underground




National Weather Service Forecast for: Jersey Village TX
Issued by: National Weather Service Houston, TX
Updated: 6:20 am CST Feb 1, 2015
 
This
Afternoon

Chance Showers. Chance for Measurable Precipitation 40%
Chance
Showers
Tonight

Gradual Clearing
Gradual
Clearing
Monday

Sunny
Sunny
Monday
Night

Partly Cloudy
Partly
Cloudy
Tuesday

Chance Rain. Chance for Measurable Precipitation 40%
Chance
Rain
Tuesday
Night

Rain Likely. Chance for Measurable Precipitation 60%
Rain
Likely
Wednesday

Chance Rain. Chance for Measurable Precipitation 40%
Chance
Rain
Wednesday
Night

Chance Rain. Chance for Measurable Precipitation 30%
Chance
Rain
Thursday

Slight Chc Rain. Chance for Measurable Precipitation 20%
Slight Chc
Rain
Hi 75 °F Lo 40 °F Hi 52 °F Lo 37 °F Hi 52 °F Lo 47 °F Hi 60 °F Lo 49 °F Hi 58 °F

Hazardous Weather Outlook
 

This Afternoon
 
A slight chance of showers, then a chance of showers and thunderstorms after 3pm. Mostly cloudy, with a high near 75. Southwest wind 10 to 15 mph becoming northwest. Chance of precipitation is 40%.
Tonight
 
Cloudy during the early evening, then gradual clearing, with a low around 40. North wind around 15 mph, with gusts as high as 20 mph.
Monday
 
Sunny, with a high near 52. North wind 5 to 15 mph, with gusts as high as 20 mph.
Monday Night
 
Partly cloudy, with a low around 37. East wind around 5 mph.
Tuesday
 
A 40 percent chance of rain after noon. Mostly cloudy, with a high near 52. East wind around 5 mph.
Tuesday Night
 
Rain likely, mainly before midnight. Cloudy, with a low around 47. Chance of precipitation is 60%.
Wednesday
 
A 40 percent chance of rain. Cloudy, with a high near 60.
Wednesday Night
 
A 30 percent chance of rain. Mostly cloudy, with a low around 49.
Thursday
 
A 20 percent chance of rain. Mostly cloudy, with a high near 58.
Thursday Night
 
Partly cloudy, with a low around 39.
Friday
 
Sunny, with a high near 57.
Friday Night
 
Mostly clear, with a low around 41.
Saturday
 
Sunny, with a high near 64.

 

Forecast from NOAA-NWS for Jersey Village TX.

Follow this link for a current verbose area forecast discussion from the NWS.
Forecast Script by Saratoga Weather | Animated icons by Meteo Treviglio


Radar and Satellite Imagery


US Current Fronts w/Radar

Southcentral Infrared Satellite

US Jet Stream

Visible Satellite
Click to go to WUnderground
Sea Surface Temp & Tropical System Map
Map Graphics by Weather Underground


Rainfall Information
Yesterday's Rain: 0 in
Last Rainfall:
Surrounding Area Rainfall Data
NOAA Avg. Rainfall For: Month to Date
(1971-2000)
Month to Date
(1981-2010)
Year to Date
(1971-2000)
Year to Date
(1981-2010)
Jersey Village: 0.12 in
(-0.12 in)
0.12 in
(-0.12 in)
3.83 in
(-1.45 in)
3.63 in
(-1.25 in)
Intercontinental (KIAH) 0.11 in 0.12 in 3.79 in 3.5 in
Hobby (KHOU) 0.12 in 0.13 in 4.37 in 4 in
NOTE:  The numbers in parenthesis under the Jersey Village data above indicate how far ahead (green) or behind (red) this station's rain total is compared to the NOAA 1971-2000 and 1981-2010 climate normals data for today's date (Feb 01).


Other Current Regional Observations (METARs)

(Ordered by straight-line statute mile distance from this weather station)

A Few More Observations/METARs of Interest to Greg


Weather Almanac

NOAA/NWS Daily Historical Weather Browser
Major SE Texas Weather Events

Records and Normals for Feb 1
Temperature Forecast Normal Record
High 73° 61° 81°
(1911)
Low 37°
39°

(1951)
Highs & Lows Observed at This Station
  Today Yesterday For 2/2015 For 2015
High Temp 75.8°F at 11:49am 63.0°F at 2:39pm 75.8°F on 2/1/15 80.2°F on 1/28/15
Low Temp 60.9°F at 6:15am 46.3°F at 5:45am 60.9°F on 2/1/15 28.8°F on 1/8/15
High Dew Point 63.5°F at 9:34am 58.9°F at 11:56pm 63.5°F on 2/1/15 63.5°F on 2/1/15
Low Dew Point 58.6°F at 6:15am 37.0°F at 12:14am 58.6°F on 2/1/15 11.2°F on 1/8/15
High Humidity 94% at 8:16am 91% at 11:21pm 94% on 2/1/15 98% on 1/2/15
Low Humidity 64% at 11:50am 61% at 12:00am 64% on 2/1/15 24% on 1/18/15
High Heat Index 78.2°F at 11:49am 67.3°F at 11:56pm 78.2°F on 2/1/15 79.6°F on 1/28/15
High Barometer 29.85in at 12:14am 30.17in at 12:00am 29.85in on 2/1/15 30.57in on 1/8/15
Low Barometer 29.81in at 5:59am 29.83in at 10:59pm 29.81in on 2/1/15 29.78in on 1/3/15
High Wind Speed 16mph at 11:11am 12mph at 4:05pm 16mph on 2/1/15 21mph on 1/22/15
High Wind Gust 16mph at 11:11am 13mph at 8:05am 16mph on 2/1/15 21mph on 1/22/15
Low Wind Chill 60.9°F at 6:15am 41.9°F at 6:39am 60.9°F on 2/1/15 20.6°F on 1/8/15

Sun & Moon
Sunrise:  7:10am Sunset:  5:57pm Moon Phase:
92%
Moonrise:  4:19pm Moonset:  5:20am
Star Chart...

 

Local Trend Graphs


MesoNet Local Weather Exchange® Network

Station ID

City 
(Click for Map Location)

Neighborhood 
(Click for History)
Last Update
(Date & Time)

Temp
 (°)

Dew
Point (°)
Humidity 
(%)
Wind 
(mph)
From
the
Gust
(mph) 
Pressure (in) Hourly
Rain (in)
KTXHOUST61 Houston Willow Point 02/01 12:00:01 74.8 26.0 16 0 SSW 0 29.83 0.00
KTXHOUST186 Houston Winchester Trails 02/01 12:00:04 75.2 62.0 64 0 SSW 12 29.93 0.00
KTXHOUST483 Houston Windfern Forest 02/01 11:57:37 74.3 64.0 71 0 North 0 30.03 0.00
KTXHOUST213 Houston 18220 Tomball Parkway 02/01 11:44:08 74.7 62.0 65 6 WNW 10 29.75 0.00
KTXHOUST332 Houston Cutten Green Sec I 02/01 11:59:58 78.6 64.0 61 4 North 5 29.98 0.00
KTXHOUST178 Houston Schroeder Oaks Village 02/01 12:00:03 75.0 66.0 73 12 West 12 29.88 0.00
KTXHOUST216 Houston Cutten Green 02/01 12:00:05 74.9 64.0 68 1 SW 1 29.90 0.00
KTXHOUST232 Houston Rolling Fork 02/01 12:00:04 73.1 63.0 70 2 SW 11 29.89 0.00
KTXHOUST349 Houston Champions Crossing 02/01 11:54:48 74.5 66.0 74 14 WSW 0 29.72 0.00
KTXCYPRE91 Cypress Mill Ridge North 02/01 11:57:16 73.6 63.0 70 0

North 0 29.95 0.00
KTXHOUST407 Houston Northside 02/01 11:56:51 73.0 63.0 71 0 North 0 30.03 0.00
KTXHOUST218 Houston Woodland Trails West 02/01 12:00:04 75.7 64.0 67 7 West 14 29.89 0.00
ME5963 Houston APRSWXNET Houston TX US 02/01 11:33:00 75.0 65.0 70 6 South 18 29.90 0.00
KTXHOUST466 Houston Mandolin Village 02/01 11:56:33 74.7 63.0 68 2 SSE 0 29.66 0.00
KTXHOUST121 Houston Norchester, K5WH 02/01 11:59:52 76.6 61.0 59 8 South 14 29.88 0.00
KTXHOUST170 Houston Champions Park 02/01 11:59:25 75.1 63.0 66 1 SW 19 29.90 0.00
MD1544 Houston APRSWXNET Houston TX US 02/01 11:27:00 74.0 62.0 66 1 SSW 11 29.92 0.00
KTXTEXAS12 Texas FM 1960 02/01 11:46:48 75.2 66.0 72 5 South 0 29.89 0.00
KTXHOUST342 Houston Lakewood Forest at Cypresswood 02/01 11:59:33 75.9 62.0 63 6 South 6 29.65 0.00
KTXHOUST233 Houston Woods of Wimbledon 02/01 12:00:00 75.4 64.0 67 4 South 0 29.91 0.00
KTXHOUST352 Houston Villa Toscana 02/01 11:59:59 75.0 62.0 65 2 SSE 8 29.87 0.00
ME5324 Houston APRSWXNET Cypress TX US 02/01 11:35:00 75.0 62.0 65 3 SSE 8 29.87 0.00
MAS823 Houston APRSWXNET Houston TX US 02/01 11:24:00 73.0 63.0 71 1 WSW 5 29.93 0.00
KTXHOUST260 Houston Villages at Lakepointe 02/01 12:00:05 75.0 62.0 63 6 SSW 13 29.99 0.00
KTXHOUST169 Houston Lakewood Forest 02/01 12:00:06 73.2 63.0 71 5 West 12 29.91 0.00
KTXHOUST472 Houston Hearthstone 02/01 11:57:30 75.0 65.0 70 0 North 0 29.97 0.00
KTXHOUST456 Houston Woods Of Wimbledon 02/01 11:57:20 71.2 62.0 71 0 North 0 29.79 0.00
KTXHOUST261 Cypress Heatherwood Village 02/01 11:53:23 73.8 62.0 68 2 West 3 29.36 0.00
KTXSPRIN88 Spring Champions Woods 02/01 11:52:44 75.2 65.0 70 4 SW 0 29.64 0.00
KTXHOUST493 Houston Lakes on Eldridge North 02/01 11:49:50 76.8 72.0 85 2 SSE 0 29.89 0.00
KTXCYPRE11 Cypress Weiser Airpark 02/01 11:59:53 75.9 62.0 62 16 SW 16 29.93 0.00
KTXCYPRE4 Cypress Moore Weather 02/01 11:55:22 72.7 62.0 68 2 SSW 3 29.90 0.00
KTXSPRIN112 Spring Colony Creek Village 02/01 11:56:57 76.3 64.0 65 0 North 0 29.81 0.00
MD8059 Houston APRSWXNET Cypress TX US 02/01 11:25:00 73.0 63.0 72 5 SW 14 29.93 0.00
KTXCYPRE42 Cypress Great Oaks 02/01 11:55:54 73.6 64.0 72 5 WNW 8 29.92 0.00
KTXCYPRE79 Cypress Cypress Chase 02/01 11:59:59 73.9 61.0 64 14 South 18 29.89 0.00
KTXHOUST271 Houston Middlegate Village 02/01 11:59:58 75.0 63.0 66 5 WSW 10 29.93 0.00
KTXCYPRE5 Cypress NW Houston (Wincrest Falls) 02/01 11:59:59 74.4 61.0 64 0 ENE 0 29.83 0.00
KDWH Houston Hooks Official Station 02/01 11:53:00 73.0 60.0 64 15 SSW --- 29.93 ---
KIAH Houston Intercontinental Official Station 75.0 75.0 59.0 57 16 SW --- 29.93 ---